Track STARLINK-3869 now! 10-day predictions STARLINK-3869 is classified as:
1 52547U 22051Q 22224.58334491 -.00009310 00000-0 -56753-3 0 9996 2 52547 53.2139 232.9808 0002215 41.1095 299.0076 15.08843646 1302